Showing default

LEMUR 2 EMERSONROSE, 63261

Orbit data source: Space-Track

LEMUR 2 EMERSONROSE, 63261 is a payload satellite owned by Spire (US) in SSO that was launched on Sat, 15 Mar 2025 UTC via an FALCON 9 launch vehicle from the Air Force Western Test Range (AFWTR). Payload-class satellites include a variety of spacecraft equipped with specific instruments for various scientific and technological missions. These include communications satellites like Starlink; space stations such as the ISS; scientific satellites like the Hubble; Earth observation satellites from companies like Planet Labs, Umbra, and HawkEye 360; GPS; miniature CubeSats for education and research; and military/defense satellites.

Loading next visibility...
Identifier
63261, 2025-052BD
Orbit
SSO
Country
Flag of USUS
Related business
Manufacturer
Spire/Glasgow
Mission
Operational Commercial Com/MetRO
Bus & Motor
CUBESAT 6U, Unknown motor
Mass
10 kg wet, 10 kg dry
Launch date (UTC)
2025-03-15 (7 months ago)
Launch vehicle
FALCON 9
Launch site
Air Force Western Test Range (AFWTR)
Object type
Payload
Rocket body
Debris
Shape & HBR
Box, 0.2 m
Radar Cross Section
0.080 m², Small (<0.1 m²)

Expand to show TLE details & history
Last TLE update: 18 hours ago

TLE from 18 hours ago
0 LEMUR 2 EMERSONROSE
1 63261U 25052BD  25286.95835637  .00008984  00000-0  81541-3 0  9992
2 63261  97.7110 178.6600 0002309 111.6470 248.4997 14.95515973 31889
Epoch: 2025-10-13T23:00Z
TLE epoch observation values (Epoch: 2025-10-13T23:00:01.990Z)
Latitude
-0.00002°
Longitude
170.89804°
Altitude
584.409 km
Speed
7.568 km/s
True Right ascension
11h 54m 38s
True Declination
0° 00' 00"
Sunlit
Object was in daylight at epoch
Visualization orbit readout
Latitude
Unknown
Longitude
Unknown
Altitude
Unknown
Speed
Unknown
Apparent Right ascension
Unknown
Apparent Declination
Unknown
Sunlit
N/A
Visualization observer readout
Local Sidereal Time
11:59:42
Azimuth
Unknown
Elevation
Unknown
Doppler factor
Unknown
Orbital elements
Apogee altitude
579.39 km
Perigee altitude
576.177 km
Semi-major axis
6,955.92 km
Eccentricity
0.00023
Inclination
97.711°
RAAN
178.66°
Arg. of periapsis
111.647°
True anomaly
248.47508°
Mean anomaly
248.4997°
Eccentric anomaly
248.48739°
Mean motion
3.7412 °/min
Orbital period
96.23 mins
BSTAR
0.00081541
Loading maneuver chart data...
Computing Atmospheric mass density...
Loading historical data...
Loading historical data...
Loading historical data...
Loading historical data...
Loading historical data...
Loading historical data...
Loading historical data...

Documentation

Showing up to 5 results
|